[[{"header":{"parameterUnit":"m.s-1","parameterCategory":1,"la1":30.2991,"la2":30.254,"lo1":-89.0895,"lo2":-89.0444,"dy":0.0017,"dx":0.0017,"nx":28,"ny":28,"refTime":"2026-01-08T03:00:00:Z","depth":0,"parameterNumber":2,"parameterNumberName":"U-component_of_WINDS"},"data":[0,0,0,0,0,0,0,0,0,0,0,0,0,0,0,0,0,0,0,0,0,0,0,0,0,0,0,0,0,0,0,0,0,0,0,0,0,0,0,0,0,0,0,0,0,0,0,0,0,0,0,0,0,0,0,0,0,0,-0.4637,-0.4636,0,-0.4605,-0.4604,-0.4604,-0.4613,-0.4613,-0.4614,-0.4614,-0.4579,-0.4577,-0.4576,0,0,0,0,0,0,0,0,0,0,0,0,0,-0.4702,-0.4701,-0.4637,-0.4636,-0.4636,-0.4605,-0.4604,-0.4604,-0.4612,-0.4613,-0.4614,-0.4615,-0.4579,-0.4577,-0.4576,0,0,0,0,0,0,0,0,0,0,0,0,0,-0.4672,-0.4701,-0.4637,-0.4636,-0.4636,-0.4605,-0.4604,-0.4604,-0.4612,-0.4613,-0.4614,-0.4615,-0.458,-0.4578,-0.4575,-0.4541,0,0,-0.4568,-0.4567,0,0,0,0,0,0,0,0,-0.4674,-0.467,-0.4637,-0.4636,-0.4636,-0.4614,-0.4614,-0.4583,-0.4612,-0.4621,-0.4614,-0.4616,-0.4589,-0.4586,-0.4578,-0.454,-0.4538,-0.4568,-0.4567,-0.4565,-0.4565,0,0,0,0,0,0,0,-0.4676,-0.4671,-0.4624,-0.4636,-0.4636,-0.4637,-0.4634,-0.4609,-0.46,-0.462,-0.4621,-0.4617,-0.4589,-0.458,-0.4577,-0.4538,-0.4568,-0.4566,-0.4564,-0.4564,-0.447,-0.4469,0,0,0,0,0,0,-0.4679,-0.4673,-0.4625,-0.4623,-0.4658,-0.4635,-0.4632,-0.462,-0.46,-0.4599,-0.4617,-0.4618,-0.4584,-0.458,-0.4576,-0.4535,-0.4566,-0.4563,-0.4562,-0.4471,-0.4469,-0.4468,0,0,0,0,0,0,-0.468,-0.4675,-0.4626,-0.4648,-0.4642,-0.4633,-0.462,-0.4619,-0.461,-0.4598,-0.4596,-0.4609,-0.4584,-0.4579,-0.455,-0.4534,-0.4562,-0.456,-0.4472,-0.447,-0.4469,-0.4452,0,0,0,0,0,0,-0.4682,-0.4675,-0.4663,-0.4648,-0.4641,-0.4602,-0.4619,-0.4617,-0.4606,-0.4607,-0.459,-0.4588,-0.4585,-0.4554,-0.4548,-0.4531,-0.4558,-0.4473,-0.4471,-0.4469,-0.4454,-0.445,-0.4447,0,0,0,0,0,-0.4685,-0.4659,-0.4662,-0.4656,-0.4625,-0.4601,-0.4597,-0.4594,-0.4605,-0.4592,-0.4584,-0.4589,-0.4537,-0.4551,-0.4544,-0.4526,-0.4474,-0.4472,-0.4469,-0.4456,-0.4451,-0.4447,0,0,0,0,0,0,-0.4671,-0.4657,-0.466,-0.4629,-0.4616,-0.4602,-0.4586,-0.4589,-0.4572,-0.4574,-0.4571,-0.4567,-0.4537,-0.4529,-0.4545,-0.4492,-0.4507,-0.4503,-0.4499,-0.4494,-0.449,-0.4492,-0.4556,0,0,0,0,0,-0.4664,-0.4646,-0.4635,-0.4608,-0.4601,-0.4595,-0.4584,-0.4583,-0.4569,-0.4563,-0.4554,-0.4539,-0.4519,-0.4506,-0.4488,-0.4453,-0.4449,-0.4438,-0.4434,-0.4431,-0.4427,-0.4408,-0.4403,-0.446,-0.446,-0.446,0,0,-0.465,-0.464,-0.4629,-0.4605,-0.4595,-0.4575,-0.459,-0.4569,-0.4554,-0.456,-0.4532,-0.4524,-0.4508,-0.4476,-0.4461,-0.4468,-0.4411,-0.4428,-0.4426,-0.4424,-0.4405,-0.4399,-0.4395,-0.4458,-0.4459,-0.4459,0,0,-0.4614,-0.4605,-0.4582,-0.4572,-0.4557,-0.4553,-0.4547,-0.4533,-0.4528,-0.45,-0.4504,-0.4486,-0.4453,-0.4441,-0.443,-0.4391,-0.4394,-0.4385,-0.4365,-0.4346,-0.4341,-0.4337,-0.4322,-0.4317,-0.4381,-0.4381,-0.4381,0,-0.4598,-0.4569,-0.4569,-0.4548,-0.4537,-0.4543,-0.4519,-0.4509,-0.4488,-0.448,-0.4488,-0.4446,-0.4436,-0.4401,-0.4391,-0.4383,-0.4375,-0.4386,-0.4342,-0.4338,-0.4334,-0.432,-0.4314,-0.438,-0.438,-0.438,-0.438,0,-0.455,-0.453,-0.4513,-0.4494,-0.4481,-0.4458,-0.4454,-0.4441,-0.4442,-0.4437,-0.4408,-0.4396,-0.4374,-0.4366,-0.4366,-0.4331,-0.4336,-0.4343,-0.4358,-0.4328,-0.4314,-0.4309,-0.4379,-0.4379,-0.4379,-0.438,0,0,-0.4503,-0.4485,-0.4479,-0.447,-0.4454,-0.4438,-0.4416,-0.4396,-0.4384,-0.437,-0.435,-0.4322,-0.4329,-0.4317,-0.4316,-0.43,-0.4268,-0.4309,-0.4309,-0.4301,-0.4227,-0.4221,-0.4215,-0.4271,-0.427,-0.4269,-0.4228,0,-0.4465,-0.4426,-0.4425,-0.4389,-0.437,-0.4376,-0.4357,-0.4344,-0.4339,-0.4321,-0.4315,-0.4295,-0.4306,-0.4299,-0.4283,-0.4275,-0.4253,-0.4279,-0.4251,-0.425,-0.4254,-0.4208,-0.4201,-0.4163,-0.4223,-0.4222,-0.4222,0,-0.4415,-0.44,-0.4362,-0.4349,-0.4341,-0.4324,-0.4305,-0.4289,-0.4275,-0.4272,-0.4259,-0.4261,-0.4237,-0.4253,-0.422,-0.4237,-0.4226,-0.422,-0.4219,-0.4215,-0.4233,-0.4201,-0.4151,-0.4144,-0.4213,-0.4214,-0.4215,0,-0.4384,-0.4354,-0.4327,-0.432,-0.4304,-0.4291,-0.4284,-0.4271,-0.4259,-0.4243,-0.4236,-0.4217,-0.4206,-0.4191,-0.4187,-0.42,-0.4153,-0.4169,-0.4149,-0.4149,-0.4137,-0.4138,-0.4083,-0.4133,-0.4133,-0.4133,-0.4133,0,-0.434,-0.4317,-0.4313,-0.4296,-0.427,-0.4269,-0.4243,-0.4236,-0.4225,-0.4207,-0.4211,-0.4193,-0.419,-0.4171,-0.4168,-0.414,-0.4136,-0.4132,-0.4131,-0.4131,-0.4131,-0.4122,-0.4124,-0.4131,-0.4132,-0.4132,-0.4132,0,-0.43,-0.4297,-0.4268,-0.4256,-0.4252,-0.4233,-0.4222,-0.4206,-0.4202,-0.4178,-0.4173,-0.4165,-0.4144,-0.4139,-0.4113,-0.4111,-0.4078,-0.408,-0.4083,-0.4082,-0.4062,-0.4063,-0.3998,-0.3989,-0.4046,-0.4045,-0.4045,0,-0.4272,-0.4254,-0.424,-0.4229,-0.4221,-0.4203,-0.4191,-0.419,-0.4177,-0.416,-0.4146,-0.4125,-0.4108,-0.4073,-0.4065,-0.4045,-0.4046,-0.4025,-0.4043,-0.4043,-0.4045,-0.4045,-0.4043,-0.4021,-0.402,-0.402,-0.402,0,-0.4222,-0.4222,-0.4205,-0.4188,-0.4174,-0.416,-0.4147,-0.4137,-0.4134,-0.412,-0.4098,-0.4085,-0.406,-0.4039,-0.4019,-0.401,-0.4014,-0.4014,-0.4008,-0.4007,-0.4009,-0.4006,-0.4072,-0.4015,-0.4016,-0.4016,-0.4016,-0.4016,-0.4187,-0.4171,-0.4159,-0.414,-0.413,-0.4118,-0.4102,-0.4096,-0.4078,-0.4058,-0.4058,-0.4035,-0.4021,-0.3995,-0.3985,-0.3966,-0.3973,-0.3964,-0.3962,-0.396,-0.3957,-0.4013,-0.3963,-0.3963,-0.3963,-0.3963,-0.3963,0,-0.4136,-0.4129,-0.4112,-0.4094,-0.4079,-0.4085,-0.4071,-0.4058,-0.4037,-0.4025,-0.4008,-0.3983,-0.3963,-0.3954,-0.3934,-0.392,-0.3921,-0.3915,-0.3915,-0.3913,-0.3953,-0.396,-0.3914,-0.3914,-0.3914,-0.3914,-0.3914,-0.3914,-0.4108,-0.4082,-0.408,-0.4048,-0.4041,-0.4018,-0.4009,-0.3998,-0.3988,-0.396,-0.3944,-0.3938,-0.3927,-0.3906,-0.3887,-0.3885,-0.3876,-0.3869,-0.3867,-0.3905,-0.391,-0.3915,-0.3921,-0.3867,-0.3867,-0.3828,-0.3828,-0.3827]},{"header":{"parameterUnit":"m.s-1","parameterCategory":1,"la1":30.2991,"la2":30.254,"lo1":-89.0895,"lo2":-89.0444,"dy":0.0017,"dx":0.0017,"nx":28,"ny":28,"refTime":"2026-01-08T03:00:00:Z","depth":0,"parameterNumber":3,"parameterNumberName":"V-component_of_WINDS"},"data":[0,0,0,0,0,0,0,0,0,0,0,0,0,0,0,0,0,0,0,0,0,0,0,0,0,0,0,0,0,0,0,0,0,0,0,0,0,0,0,0,0,0,0,0,0,0,0,0,0,0,0,0,0,0,0,0,0,0,2.6552,2.6553,0,2.6699,2.6701,2.6702,2.6742,2.6741,2.674,2.6739,2.6888,2.6893,2.6898,0,0,0,0,0,0,0,0,0,0,0,0,0,2.6303,2.6308,2.6551,2.6553,2.6555,2.6699,2.6701,2.6703,2.6742,2.6741,2.674,2.6739,2.6887,2.6892,2.6898,0,0,0,0,0,0,0,0,0,0,0,0,0,2.6427,2.6309,2.6551,2.6592,2.6597,2.6698,2.6701,2.6703,2.6742,2.6741,2.674,2.6739,2.6885,2.6892,2.6899,2.6969,0,0,2.6921,2.6924,0,0,0,0,0,0,0,0,2.642,2.6436,2.6584,2.6589,2.6595,2.6701,2.6668,2.6792,2.6743,2.6687,2.6739,2.6738,2.6827,2.6839,2.6869,2.6976,2.6982,2.6921,2.6926,2.6929,2.6931,0,0,0,0,0,0,0,2.6411,2.643,2.661,2.6586,2.6593,2.6603,2.6619,2.6692,2.6762,2.6692,2.6695,2.6712,2.683,2.6862,2.6873,2.6985,2.6921,2.6928,2.6932,2.6935,2.7159,2.716,0,0,0,0,0,0,2.6396,2.6422,2.6605,2.6614,2.6503,2.6608,2.6627,2.6668,2.6762,2.6775,2.6713,2.6713,2.6851,2.6864,2.6878,2.6968,2.6929,2.6935,2.694,2.7157,2.7159,2.7161,0,0,0,0,0,0,2.639,2.6412,2.6599,2.6519,2.6544,2.6614,2.6661,2.6672,2.6704,2.6778,2.679,2.6733,2.685,2.6868,2.6947,2.6974,2.6939,2.6945,2.7155,2.7158,2.716,2.7148,0,0,0,0,0,0,2.6383,2.641,2.6437,2.652,2.6548,2.6665,2.6662,2.6676,2.6717,2.6719,2.68,2.6812,2.685,2.6936,2.6954,2.6983,2.6951,2.7153,2.7156,2.7159,2.7146,2.715,2.7152,0,0,0,0,0,2.6374,2.6427,2.6438,2.646,2.6584,2.6667,2.6683,2.6726,2.6719,2.6747,2.6795,2.681,2.6968,2.6944,2.6964,2.6996,2.7151,2.7155,2.7159,2.7145,2.7149,2.7152,0,0,0,0,0,0,2.6344,2.6438,2.6452,2.6533,2.6592,2.6673,2.671,2.6729,2.6791,2.679,2.684,2.6858,2.6934,2.6973,2.6944,2.707,2.706,2.7068,2.7042,2.7047,2.705,2.7039,2.6957,0,0,0,0,0,2.6347,2.6407,2.6486,2.6549,2.6579,2.6639,2.6677,2.6705,2.6768,2.6793,2.6846,2.6906,2.6969,2.701,2.7072,2.7152,2.7171,2.7184,2.7187,2.7189,2.7196,2.7243,2.725,2.7173,2.7173,2.7173,0,0,2.6353,2.6412,2.6447,2.6545,2.6594,2.6655,2.666,2.6724,2.677,2.6802,2.6881,2.6922,2.6992,2.7072,2.711,2.7107,2.7221,2.7194,2.7195,2.7201,2.7248,2.7255,2.7261,2.7176,2.7175,2.7175,0,0,2.6397,2.6447,2.6507,2.6556,2.6631,2.6671,2.6685,2.6765,2.6794,2.6873,2.69,2.6955,2.7062,2.7112,2.7151,2.7215,2.7232,2.7234,2.7251,2.7296,2.7302,2.7308,2.7333,2.7341,2.724,2.724,2.724,0,2.6395,2.6489,2.6535,2.6598,2.6641,2.6675,2.6736,2.6782,2.6872,2.6901,2.6896,2.7034,2.7083,2.7176,2.7192,2.7222,2.7241,2.7225,2.7298,2.7304,2.731,2.7334,2.7343,2.724,2.724,2.724,2.724,0,2.6484,2.6549,2.6588,2.6677,2.6724,2.6786,2.6841,2.6883,2.6908,2.6949,2.703,2.7091,2.7167,2.7191,2.7215,2.7288,2.7284,2.7288,2.7279,2.7317,2.734,2.7349,2.724,2.724,2.724,2.724,0,0,2.6513,2.6627,2.6641,2.6682,2.6767,2.6818,2.6882,2.6958,2.6994,2.7055,2.7111,2.7202,2.7207,2.7251,2.7281,2.7321,2.737,2.732,2.7323,2.7329,2.7457,2.7454,2.7464,2.7381,2.7383,2.7385,2.7451,0,2.6568,2.6684,2.6728,2.6823,2.6885,2.6918,2.6974,2.7032,2.7072,2.713,2.7174,2.7239,2.7239,2.7267,2.7307,2.7355,2.7397,2.7351,2.7434,2.7437,2.7417,2.7476,2.7473,2.7533,2.7461,2.7462,2.7463,0,2.6648,2.6712,2.6814,2.6894,2.6921,2.6971,2.7045,2.7099,2.7166,2.7193,2.7244,2.7271,2.734,2.7326,2.7422,2.739,2.7427,2.7456,2.7459,2.747,2.7453,2.749,2.7553,2.7563,2.7478,2.7477,2.7476,0,2.6661,2.6772,2.6849,2.6883,2.6977,2.7011,2.7052,2.7118,2.7162,2.7226,2.7255,2.7325,2.7365,2.7419,2.7465,2.7451,2.7558,2.7547,2.7582,2.7581,2.7604,2.7602,2.7676,2.7625,2.7625,2.7625,2.7625,0,2.6719,2.678,2.6856,2.6903,2.6973,2.7022,2.709,2.7133,2.7192,2.7248,2.728,2.7332,2.739,2.7449,2.7485,2.7561,2.7577,2.7601,2.7611,2.7599,2.7597,2.7625,2.7622,2.7627,2.7627,2.7626,2.7626,0,2.6745,2.6798,2.6884,2.6967,2.6989,2.7037,2.7108,2.7155,2.7197,2.7268,2.7287,2.7353,2.7425,2.7476,2.7568,2.7593,2.7674,2.7682,2.7651,2.7656,2.7689,2.7686,2.7785,2.7801,2.7738,2.7738,2.7739,0,2.678,2.6828,2.6917,2.6957,2.6999,2.7063,2.7108,2.7158,2.7204,2.7285,2.7323,2.7397,2.7459,2.7572,2.7628,2.7699,2.771,2.774,2.7721,2.7709,2.7713,2.771,2.7716,2.7743,2.7743,2.7744,2.7744,0,2.6836,2.686,2.6924,2.6997,2.705,2.711,2.7171,2.7202,2.7263,2.7313,2.7387,2.7436,2.7531,2.7604,2.7681,2.7723,2.7745,2.775,2.7762,2.7752,2.7733,2.7745,2.7661,2.7747,2.7747,2.7747,2.7747,2.7746,2.6868,2.6914,2.6984,2.7055,2.7106,2.7162,2.7211,2.726,2.7323,2.7405,2.7431,2.7508,2.7576,2.7682,2.7725,2.7786,2.7785,2.7802,2.7807,2.7811,2.7811,2.7722,2.78,2.78,2.78,2.78,2.78,0,2.6928,2.6975,2.7039,2.7124,2.718,2.7195,2.7263,2.7309,2.7377,2.7439,2.75,2.7586,2.7658,2.772,2.7795,2.7833,2.7844,2.7851,2.7849,2.7859,2.7807,2.779,2.784,2.784,2.784,2.784,2.784,2.784,2.6965,2.7043,2.7076,2.718,2.7227,2.7304,2.7342,2.7394,2.7444,2.754,2.76,2.764,2.7703,2.7783,2.785,2.7866,2.7893,2.7897,2.7916,2.7867,2.7862,2.7858,2.7842,2.7902,2.7902,2.7963,2.7964,2.7964]}]]